sat.trackr.live / text

‹ back to catalog

IRIDIUM 152

NORAD 43479 · 2018-047D

PAYLOAD ACTIVE UNKNOWN

§ Identity

Operator
Country
US
Launch date
2018-05-22
Launch site
AFWTR
Launch vehicle
Mass (kg)
RCS (m²)

Purposes: comms

External: N2YO · Heavens-Above · Gunter

§ Orbital elements

Epoch: 2026-05-25T03:33:06.298848Z

Period
100.40 min
Inclination
86.3947°
Eccentricity
0.0002280
Mean motion
14.34217212 rev/d
Perigee alt
776.0 km
Apogee alt
779.3 km
Semi-major
7,155.8 km
B*
-3.9941e-5
RAAN
97.9648°
Arg perigee
87.4577°
Mean anomaly
272.6880°
Rev number
41,918

§ Raw data

IRIDIUM 1521 43479U 18047D   26145.14798957 -.00000092  00000+0 -39941-4 0  99972 43479  86.3947  97.9648 0002280  87.4577 272.6880 14.34217212419182

JSON: /api/v1/satellites/43479 · /tle

For live sub-satellite position, see the globe view (requires WebGL).

§ Visibility from observer

Set your observer location to see the next 7 days of passes ≥ 10°. The values pass through the URL so the page stays shareable.

No JS? Fill the form by hand. The geolocation button needs JavaScript.